Date String (YYYY-MM-DD hh:mm:ss) UTC,Instrument flags,Ambient pressure (hPa),Sample flow (lpm),Bypass flow (lpm),Sample temperature (°C),Ambient temperature (°C),ASC tube jacket temperature (°C),LED temperature (°C),Box temperature (°C),Sample RH (%),Span deviation,Mass concentration (μg/m³),Mass concentration (μg/m³),Mass concentration (μg/m³)
DateTimeUTC,F1_M11,P_M11,Q1_M11,Q2_M11,T1_M11,T2_M11,T3_M11,T4_M11,T5_M11,U1_M11,ZSPAN_M11,X0_M11,X2_M11,X1_M11
2023-01-17 12:00:00,,0813.8,4.99,0.00,22.4,21.6,00.0,31.3,24.3,13.0,0000.0,0009.78,0005.49,0005.28
2023-01-17 12:01:00,,0813.9,5.00,0.00,22.5,22.5,00.0,31.3,24.5,12.9,0000.0,0009.76,0005.48,0005.27
2023-01-17 12:02:00,,0813.9,5.00,0.00,22.7,23.1,00.0,31.3,24.7,12.9,0000.0,0009.74,0005.46,0005.26
2023-01-17 12:03:00,,0813.9,4.99,0.00,22.7,22.8,00.0,31.4,24.7,12.9,0000.0,0009.84,0005.44,0005.22
2023-01-17 12:04:00,,0814.2,4.99,0.00,22.7,22.4,00.0,31.4,24.6,12.8,0000.0,0009.01,0005.40,0005.17
2023-01-17 12:05:00,,0814.2,5.01,0.00,22.7,22.1,00.0,31.4,24.6,12.9,0000.0,0008.65,0005.34,0005.12
2023-01-17 12:06:00,,0814.3,5.00,0.00,22.7,21.8,00.0,31.5,24.5,12.9,0000.0,0008.59,0005.29,0005.06
2023-01-17 12:07:00,,0814.3,5.01,0.00,22.7,21.6,00.0,31.5,24.5,12.9,0000.0,0008.44,0005.26,0005.00
2023-01-17 12:08:00,,0813.8,4.99,0.00,22.7,21.4,00.0,31.5,24.4,12.9,0000.0,0008.30,0005.20,0004.95
2023-01-17 12:09:00,,0813.8,5.01,0.00,22.6,21.4,00.0,31.5,24.4,12.9,0000.0,0008.18,0005.15,0004.90
2023-01-17 12:10:00,,0813.9,5.01,0.00,22.6,21.3,00.0,31.5,24.3,12.8,0000.0,0008.14,0005.12,0004.88
2023-01-17 12:11:00,,0813.8,4.99,0.00,22.6,21.2,00.0,31.5,24.3,12.7,0000.0,0008.04,0005.10,0004.87
2023-01-17 12:12:00,,0813.8,4.98,0.00,22.6,21.1,00.0,31.5,24.3,12.7,0000.0,0008.05,0005.10,0004.87
2023-01-17 12:13:00,,0814.1,5.01,0.00,22.6,21.1,00.0,31.5,24.2,12.6,0000.0,0008.05,0005.10,0004.87
2023-01-17 12:14:00,,0814.3,5.02,0.00,22.5,21.0,00.0,31.5,24.2,12.6,0000.0,0007.96,0005.11,0004.89
2023-01-17 12:15:00,,0814.3,5.00,0.00,22.5,20.9,00.0,31.5,24.2,12.5,0000.0,0007.92,0005.13,0004.92
2023-01-17 12:16:00,,0814.1,5.01,0.00,22.5,20.9,00.0,31.5,24.1,12.5,0000.0,0008.06,0005.19,0004.96
2023-01-17 12:17:00,,0814.1,5.00,0.00,22.5,20.8,00.0,31.4,24.1,12.6,0000.0,0008.12,0005.24,0005.00
2023-01-17 12:18:00,,0813.7,5.00,0.00,22.4,20.8,00.0,31.4,24.1,12.6,0000.0,0007.93,0005.25,0005.03
2023-01-17 12:19:00,,0813.6,5.01,0.00,22.4,20.8,00.0,31.4,24.1,12.6,0000.0,0007.80,0005.28,0005.06
2023-01-17 12:20:00,,0813.6,5.00,0.00,22.4,20.8,00.0,31.4,24.1,12.6,0000.0,0007.84,0005.29,0005.08
2023-01-17 12:21:00,,0813.5,5.00,0.00,22.4,21.1,00.0,31.4,24.1,12.7,0000.0,0007.85,0005.28,0005.07
2023-01-17 12:22:00,,0813.5,5.01,0.00,22.5,22.1,00.0,31.3,24.4,12.6,0000.0,0007.90,0005.26,0005.05
2023-01-17 12:23:00,,0813.5,5.00,0.00,22.6,22.9,00.0,31.3,24.6,12.5,0000.0,0008.15,0005.26,0005.04
2023-01-17 12:24:00,,0813.5,5.00,0.00,22.7,23.0,00.0,31.4,24.7,12.5,0002.2,0008.29,0005.24,0005.00
2023-01-17 12:25:00,,0813.5,4.99,0.00,22.7,22.5,00.0,31.4,24.6,12.5,0000.6,0008.29,0005.21,0004.96
2023-01-17 12:26:00,,0813.4,5.01,0.00,22.7,22.1,00.0,31.4,24.5,12.5,0000.7,0008.28,0005.18,0004.93
2023-01-17 12:27:00,,0813.4,5.00,0.00,22.7,21.7,00.0,31.5,24.5,12.6,0001.3,0008.14,0005.11,0004.88
2023-01-17 12:28:00,,0813.4,5.00,0.00,22.7,21.4,00.0,31.5,24.4,12.6,0001.3,0008.07,0005.05,0004.84
2023-01-17 12:29:00,,0813.5,5.01,0.00,22.6,21.3,00.0,31.5,24.4,12.6,0000.8,0008.04,0005.02,0004.80
2023-01-17 12:30:00,,0813.5,5.00,0.00,22.6,21.2,00.0,31.5,24.3,12.7,0000.2,0008.06,0005.01,0004.76
2023-01-17 12:31:00,,0813.5,5.00,0.00,22.6,21.1,00.0,31.5,24.3,12.7,-000.5,0008.11,0004.97,0004.72
2023-01-17 12:32:00,,0813.5,4.99,0.00,22.6,21.0,00.0,31.5,24.3,12.8,-000.3,0008.10,0004.95,0004.69
2023-01-17 12:33:00,,0813.5,5.00,0.00,22.5,21.0,00.0,31.5,24.2,12.9,-000.2,0008.01,0004.90,0004.64
2023-01-17 12:34:00,,0813.5,5.00,0.00,22.5,20.9,00.0,31.5,24.2,12.9,-000.5,0007.70,0004.85,0004.61
2023-01-17 12:35:00,,0813.5,5.01,0.00,22.5,20.9,00.0,31.4,24.2,13.0,-000.7,0007.55,0004.82,0004.60
2023-01-17 12:36:00,,0813.5,5.00,0.00,22.5,20.8,00.0,31.4,24.2,13.1,-000.3,0007.47,0004.79,0004.57
2023-01-17 12:37:00,,0813.5,5.01,0.00,22.5,20.8,00.0,31.4,24.1,13.0,0000.1,0007.37,0004.74,0004.54
2023-01-17 12:38:00,,0813.5,5.00,0.00,22.4,20.8,00.0,31.4,24.1,13.0,0000.3,0007.34,0004.72,0004.52
2023-01-17 12:39:00,,0813.4,5.00,0.00,22.4,20.8,00.0,31.4,24.1,13.0,0000.0,0007.27,0004.70,0004.50
2023-01-17 12:40:00,,0813.3,4.99,0.00,22.4,20.8,00.0,31.4,24.1,13.0,0000.0,0007.51,0004.68,0004.48
2023-01-17 12:41:00,,0813.3,5.00,0.00,22.4,20.9,00.0,31.4,24.1,13.0,0000.0,0007.49,0004.62,0004.46
2023-01-17 12:42:00,,0813.2,5.01,0.00,22.4,21.3,00.0,31.3,24.2,13.1,0000.0,0007.34,0004.59,0004.43
2023-01-17 12:43:00,,0813.2,5.00,0.00,22.5,22.3,00.0,31.3,24.4,13.0,0000.0,0007.19,0004.56,0004.42
2023-01-17 12:44:00,,0813.2,4.99,0.00,22.6,23.1,00.0,31.3,24.7,12.9,0000.0,0007.08,0004.54,0004.41
2023-01-17 12:45:00,,0813.3,4.99,0.00,22.7,22.9,00.0,31.4,24.7,12.9,0000.0,0006.97,0004.51,0004.38
2023-01-17 12:46:00,,0813.3,4.99,0.00,22.7,22.5,00.0,31.4,24.7,12.9,0000.0,0006.80,0004.46,0004.35
2023-01-17 12:47:00,,0813.3,5.00,0.00,22.7,22.1,00.0,31.5,24.6,12.9,0000.0,0006.80,0004.44,0004.32
2023-01-17 12:48:00,,0813.3,5.01,0.00,22.7,21.9,00.0,31.5,24.5,12.9,0000.0,0006.73,0004.40,0004.29
2023-01-17 12:49:00,,0813.4,5.01,0.00,22.7,21.7,00.0,31.5,24.5,12.6,0000.0,0006.75,0004.41,0004.30
2023-01-17 12:50:00,,0813.4,5.01,0.00,22.7,21.5,00.0,31.5,24.5,12.6,0000.0,0006.74,0004.42,0004.31
2023-01-17 12:51:00,,0813.5,4.99,0.00,22.7,21.5,00.0,31.5,24.4,12.7,0000.0,0006.43,0004.41,0004.31
2023-01-17 12:52:00,,0813.6,5.00,0.00,22.7,21.4,00.0,31.5,24.4,12.8,0000.0,0006.30,0004.39,0004.30
2023-01-17 12:53:00,,0813.8,5.00,0.00,22.7,21.4,00.0,31.5,24.4,12.8,0000.0,0006.31,0004.39,0004.29
2023-01-17 12:54:00,,0814.3,5.00,0.00,22.7,21.4,00.0,31.5,24.4,12.8,0000.0,0006.27,0004.36,0004.28
2023-01-17 12:55:00,,0813.9,5.01,0.00,22.7,21.4,00.0,31.5,24.4,12.9,0000.0,0006.86,0004.38,0004.27
2023-01-17 12:56:00,,0813.9,5.00,0.00,22.7,21.4,00.0,31.5,24.4,12.9,0000.0,0007.43,0004.40,0004.27
2023-01-17 12:57:00,,0814.1,5.00,0.00,22.7,21.4,00.0,31.5,24.4,12.9,0000.0,0007.50,0004.41,0004.27
2023-01-17 12:58:00,,0814.1,4.99,0.00,22.6,21.3,00.0,31.5,24.4,12.9,0000.0,0007.50,0004.41,0004.26
2023-01-17 12:59:00,,0813.9,5.00,0.00,22.6,21.3,00.0,31.5,24.4,12.8,0000.0,0007.51,0004.40,0004.26
